ProjectID,Date,Electric Generation,Electric Utility Import,Facility Electric Load
,YYYY-MM-DD,kW,kW,kW
74,2011-05-01,0.0,,0.0
74,2011-05-02,0.0,,0.0
74,2011-05-03,0.0,,0.0
74,2011-05-04,0.0,,0.0
74,2011-05-05,0.0,,0.0
74,2011-05-06,0.0,,0.0
74,2011-05-07,0.0,,0.0
74,2011-05-08,0.0,,0.0
74,2011-05-09,0.0,,0.0
74,2011-05-10,0.0,,0.0
74,2011-05-11,0.0,,0.0
74,2011-05-12,0.0,,0.0
74,2011-05-13,0.0,,0.0
74,2011-05-14,0.0,,0.0
74,2011-05-15,0.0,,0.0
74,2011-05-16,0.0,,0.0
74,2011-05-17,103.16658333333334,,103.16658333333334
74,2011-05-18,223.29133333333334,,223.29133333333334
74,2011-05-19,250.70820833333335,,250.70820833333335
74,2011-05-20,297.5005,,297.5005
74,2011-05-21,297.79170833333336,,297.79170833333336
74,2011-05-22,297.416625,,297.416625
74,2011-05-23,297.5838333333333,,297.5838333333333
74,2011-05-24,283.5419166666667,,283.5419166666667
74,2011-05-25,297.91633333333334,,297.91633333333334
74,2011-05-26,298.04158333333334,,298.04158333333334
74,2011-05-27,244.20862499999998,,244.20862499999998
74,2011-05-28,397.83412500000003,,397.83412500000003
74,2011-05-29,399.04145833333337,,399.04145833333337
74,2011-05-30,398.33258333333333,,398.33258333333333
74,2011-05-31,397.49837499999995,,397.49837499999995
74,2011-06-01,396.6675,,396.6675
74,2011-06-02,397.1671666666667,,397.1671666666667
74,2011-06-03,399.54245833333334,,399.54245833333334
74,2011-06-04,400.041,,400.041
74,2011-06-05,399.54245833333334,,399.54245833333334
74,2011-06-06,399.49925,,399.49925
74,2011-06-07,399.5005416666667,,399.5005416666667
74,2011-06-08,393.333375,,393.333375
74,2011-06-09,396.1664166666667,,396.1664166666667
74,2011-06-10,397.33375,,397.33375
74,2011-06-11,396.499625,,396.499625
74,2011-06-12,396.3330416666667,,396.3330416666667
74,2011-06-13,397.00062499999996,,397.00062499999996
74,2011-06-14,396.3343333333333,,396.3343333333333
74,2011-06-15,396.1664166666667,,396.1664166666667
74,2011-06-16,396.66741666666667,,396.66741666666667
74,2011-06-17,396.33295833333335,,396.33295833333335
74,2011-06-18,396.62545833333337,,396.62545833333337
74,2011-06-19,396.83408333333335,,396.83408333333335
74,2011-06-20,396.706875,,396.706875
74,2011-06-21,396.3342916666666,,396.3342916666666
74,2011-06-22,396.165125,,396.165125
74,2011-06-23,396.66741666666667,,396.66741666666667
74,2011-06-24,396.3330416666667,,396.3330416666667
74,2011-06-25,396.12449999999995,,396.12449999999995
74,2011-06-26,396.3342916666666,,396.3342916666666
74,2011-06-27,396.667375,,396.667375
74,2011-06-28,396.3317916666667,,396.3317916666667
74,2011-06-29,397.2091666666667,,397.2091666666667
74,2011-06-30,397.1657916666666,,397.1657916666666
74,2011-07-01,396.835125,,396.835125
74,2011-07-02,396.6673333333333,,396.6673333333333
74,2011-07-03,396.5020416666667,,396.5020416666667
74,2011-07-04,396.3342083333334,,396.3342083333334
74,2011-07-05,397.3335833333333,,397.3335833333333
74,2011-07-06,396.66474999999997,,396.66474999999997
74,2011-07-07,375.9179166666667,,375.9179166666667
74,2011-07-08,396.2935,,396.2935
74,2011-07-09,396.16633333333334,,396.16633333333334
74,2011-07-10,396.3341666666667,,396.3341666666667
74,2011-07-11,396.66474999999997,,396.66474999999997
74,2011-07-12,396.1689166666667,,396.1689166666667
74,2011-07-13,396.3290416666667,,396.3290416666667
74,2011-07-14,397.00050000000005,,397.00050000000005
74,2011-07-15,398.99925,,398.99925
74,2011-07-16,399.08324999999996,,399.08324999999996
74,2011-07-17,397.58270833333336,,397.58270833333336
74,2011-07-18,399.00174999999996,,399.00174999999996
74,2011-07-19,399.332375,,399.332375
74,2011-07-20,399.5002083333333,,399.5002083333333
74,2011-07-21,399.00174999999996,,399.00174999999996
74,2011-07-22,399.49766666666665,,399.49766666666665
74,2011-07-23,399.50275000000005,,399.50275000000005
74,2011-07-24,399.00174999999996,,399.00174999999996
74,2011-07-25,399.00174999999996,,399.00174999999996
74,2011-07-26,398.99920833333334,,398.99920833333334
74,2011-07-27,399.49766666666665,,399.49766666666665
74,2011-07-28,399.00429166666663,,399.00429166666663
74,2011-07-29,398.99920833333334,,398.99920833333334
74,2011-07-30,400.00120833333335,,400.00120833333335
74,2011-07-31,399.49766666666665,,399.49766666666665
74,2011-08-01,398.99666666666667,,398.99666666666667
74,2011-08-02,399.00174999999996,,399.00174999999996
74,2011-08-03,366.99645833333335,,366.99645833333335
74,2011-08-04,1.0503333333333333,,1.0503333333333333
74,2011-08-05,0.5111666666666667,,0.5111666666666667
74,2011-08-06,0.0,,0.0
74,2011-08-07,0.0,,0.0
74,2011-08-08,0.0,,0.0
74,2011-08-09,0.25175,,0.25175
74,2011-08-10,1.5970833333333332,,1.5970833333333332
74,2011-08-11,117.08825,,117.08825
74,2011-08-12,398.50075,,398.50075
74,2011-08-13,398.33295833333335,,398.33295833333335
74,2011-08-14,398.33549999999997,,398.33549999999997
74,2011-08-15,398.99920833333334,,398.99920833333334
74,2011-08-16,399.00179166666663,,399.00179166666663
74,2011-08-17,398.503375,,398.503375
74,2011-08-18,399.334875,,399.334875
74,2011-08-19,398.99916666666667,,398.99916666666667
74,2011-08-20,399.334875,,399.334875
74,2011-08-21,399.16450000000003,,399.16450000000003
74,2011-08-22,399.6655,,399.6655
74,2011-08-23,399.08329166666664,,399.08329166666664
74,2011-08-24,399.4977083333333,,399.4977083333333
74,2011-08-25,399.50275000000005,,399.50275000000005
74,2011-08-26,399.5002083333333,,399.5002083333333
74,2011-08-27,399.00174999999996,,399.00174999999996
74,2011-08-28,399.5002083333333,,399.5002083333333
74,2011-08-29,399.00174999999996,,399.00174999999996
74,2011-08-30,398.99920833333334,,398.99920833333334
74,2011-08-31,399.9986666666667,,399.9986666666667
74,2011-09-01,398.99666666666667,,398.99666666666667
74,2011-09-02,399.00174999999996,,399.00174999999996
74,2011-09-03,398.99666666666667,,398.99666666666667
74,2011-09-04,398.99675,,398.99675
74,2011-09-05,396.168875,,396.168875
74,2011-09-06,397.3335833333333,,397.3335833333333
74,2011-09-07,387.0034166666667,,387.0034166666667
74,2011-09-08,373.16883333333334,,373.16883333333334
74,2011-09-09,390.33500000000004,,390.33500000000004
74,2011-09-10,396.16895833333336,,396.16895833333336
74,2011-09-11,396.6266666666667,,396.6266666666667
74,2011-09-12,396.16375,,396.16375
74,2011-09-13,396.8351666666667,,396.8351666666667
74,2011-09-14,396.49949999999995,,396.49949999999995
74,2011-09-15,396.16383333333334,,396.16383333333334
74,2011-09-16,18.8395,,18.8395
74,2011-09-17,245.69695833333333,,245.69695833333333
74,2011-09-18,287.66883333333334,,287.66883333333334
74,2011-09-19,372.04475,,372.04475
74,2011-09-20,382.1614583333333,,382.1614583333333
74,2011-09-21,396.29608333333334,,396.29608333333334
74,2011-09-22,399.33258333333333,,399.33258333333333
74,2011-09-23,399.4190416666667,,399.4190416666667
74,2011-09-24,399.50045833333337,,399.50045833333337
74,2011-09-25,399.8768333333333,,399.8768333333333
74,2011-09-26,399.54108333333335,,399.54108333333335
74,2011-09-27,399.3732916666667,,399.3732916666667
74,2011-09-28,398.33570833333334,,398.33570833333334
74,2011-09-29,400.04466666666667,,400.04466666666667
74,2011-09-30,399.36816666666664,,399.36816666666664
74,2011-10-01,397.5015416666667,,397.5015416666667
74,2011-10-02,381.29154166666666,,381.29154166666666
74,2011-10-03,370.0408333333333,,370.0408333333333
74,2011-10-04,366.6229166666667,,366.6229166666667
74,2011-10-05,371.876875,,371.876875
74,2011-10-06,360.1277916666666,,360.1277916666666
74,2011-10-07,359.1257083333333,,359.1257083333333
74,2011-10-08,370.747875,,370.747875
74,2011-10-09,383.1634166666667,,383.1634166666667
74,2011-10-10,399.54112499999997,,399.54112499999997
74,2011-10-11,399.04266666666666,,399.04266666666666
74,2011-10-12,391.749,,391.749
74,2011-10-13,386.78991666666667,,386.78991666666667
74,2011-10-14,398.8799166666667,,398.8799166666667
74,2011-10-15,380.66608333333335,,380.66608333333335
74,2011-10-16,378.5450416666667,,378.5450416666667
74,2011-10-17,381.41379166666667,,381.41379166666667
74,2011-10-18,378.2094583333333,,378.2094583333333
74,2011-10-19,381.41883333333334,,381.41883333333334
74,2011-10-20,388.83466666666664,,388.83466666666664
74,2011-10-21,366.7094583333333,,366.7094583333333
74,2011-10-22,372.8331666666666,,372.8331666666666
74,2011-10-23,375.66629166666667,,375.66629166666667
74,2011-10-24,371.74470833333334,,371.74470833333334
74,2011-10-25,364.6647083333333,,364.6647083333333
74,2011-10-26,367.4164166666667,,367.4164166666667
74,2011-10-27,376.33254166666666,,376.33254166666666
74,2011-10-28,387.21208333333334,,387.21208333333334
74,2011-10-29,397.45575,,397.45575
74,2011-10-30,399.037625,,399.037625
74,2011-10-31,398.203375,,398.203375
74,2011-11-01,397.623625,,397.623625
74,2011-11-02,390.91495833333335,,390.91495833333335
74,2011-11-03,387.33408333333335,,387.33408333333335
74,2011-11-04,381.70875,,381.70875
74,2011-11-05,399.1647083333333,,399.1647083333333
74,2011-11-06,398.16787500000004,,398.16787500000004
74,2011-11-07,385.58441666666664,,385.58441666666664
74,2011-11-08,373.41816666666665,,373.41816666666665
74,2011-11-09,370.53920833333336,,370.53920833333336
74,2011-11-10,368.75399999999996,,368.75399999999996
74,2011-11-11,385.12154166666664,,385.12154166666664
74,2011-11-12,397.1252083333333,,397.1252083333333
74,2011-11-13,387.50195833333333,,387.50195833333333
74,2011-11-14,374.4200416666667,,374.4200416666667
74,2011-11-15,366.2057916666667,,366.2057916666667
74,2011-11-16,371.99916666666667,,371.99916666666667
74,2011-11-17,382.45645833333333,,382.45645833333333
74,2011-11-18,399.37829166666666,,399.37829166666666
74,2011-11-19,399.28683333333333,,399.28683333333333
74,2011-11-20,395.9604166666666,,395.9604166666666
74,2011-11-21,384.3790833333333,,384.3790833333333
74,2011-11-22,393.753,,393.753
74,2011-11-23,394.79062500000003,,394.79062500000003
74,2011-11-24,398.95625,,398.95625
74,2011-11-25,389.16520833333334,,389.16520833333334
74,2011-11-26,388.33620833333333,,388.33620833333333
74,2011-11-27,388.707375,,388.707375
74,2011-11-28,371.37854166666665,,371.37854166666665
74,2011-11-29,370.793625,,370.793625
74,2011-11-30,384.21120833333333,,384.21120833333333
74,2011-12-01,398.539125,,398.539125
74,2011-12-02,396.9574583333333,,396.9574583333333
74,2011-12-03,398.99179166666664,,398.99179166666664
74,2011-12-04,398.5797916666667,,398.5797916666667
74,2011-12-05,390.462125,,390.462125
74,2011-12-06,385.1979166666667,,385.1979166666667
74,2011-12-07,376.33762499999995,,376.33762499999995
74,2011-12-08,399.0020416666667,,399.0020416666667
74,2011-12-09,400.0395416666667,,400.0395416666667
74,2011-12-10,399.6682916666667,,399.6682916666667
74,2011-12-11,399.54112499999997,,399.54112499999997
74,2011-12-12,399.25120833333335,,399.25120833333335
74,2011-12-13,398.86975,,398.86975
74,2011-12-14,399.5461666666667,,399.5461666666667
74,2011-12-15,398.79354166666667,,398.79354166666667
74,2011-12-16,397.0794166666667,,397.0794166666667
74,2011-12-17,399.58691666666664,,399.58691666666664
74,2011-12-18,398.8799583333334,,398.8799583333334
74,2011-12-19,399.0375833333333,,399.0375833333333
74,2011-12-20,399.54620833333337,,399.54620833333337
74,2011-12-21,400.0344583333333,,400.0344583333333
74,2011-12-22,397.46091666666666,,397.46091666666666
74,2011-12-23,398.75275000000005,,398.75275000000005
74,2011-12-24,399.9124583333333,,399.9124583333333
74,2011-12-25,399.54620833333337,,399.54620833333337
74,2011-12-26,399.5461666666667,,399.5461666666667
74,2011-12-27,399.37325000000004,,399.37325000000004
74,2011-12-28,399.0782916666667,,399.0782916666667
74,2011-12-29,399.0477916666667,,399.0477916666667
74,2011-12-30,398.864625,,398.864625
74,2011-12-31,399.04770833333333,,399.04770833333333
74,2012-01-01,399.414,,399.414
74,2012-01-02,399.54620833333337,,399.54620833333337
74,2012-01-03,399.0375833333333,,399.0375833333333
74,2012-01-04,399.536,,399.536
74,2012-01-05,398.9155,,398.9155
74,2012-01-06,399.54620833333337,,399.54620833333337
74,2012-01-07,399.87175,,399.87175
74,2012-01-08,399.5461666666667,,399.5461666666667
74,2012-01-09,399.0375833333333,,399.0375833333333
74,2012-01-10,399.37325000000004,,399.37325000000004
74,2012-01-11,399.0375833333333,,399.0375833333333
74,2012-01-12,399.04775,,399.04775
74,2012-01-13,399.363125,,399.363125
74,2012-01-14,399.58687499999996,,399.58687499999996
74,2012-01-15,399.0375833333333,,399.0375833333333
74,2012-01-16,399.88187500000004,,399.88187500000004
74,2012-01-17,399.08841666666666,,399.08841666666666
74,2012-01-18,399.037625,,399.037625
74,2012-01-19,399.3732916666667,,399.3732916666667
74,2012-01-20,399.0274166666666,,399.0274166666666
74,2012-01-21,399.424125,,399.424125
74,2012-01-22,399.2003333333334,,399.2003333333334
74,2012-01-23,399.536,,399.536
74,2012-01-24,399.87175,,399.87175
74,2012-01-25,399.54620833333337,,399.54620833333337
74,2012-01-26,399.08841666666666,,399.08841666666666
74,2012-01-27,398.8341666666667,,398.8341666666667
74,2012-01-28,399.54620833333337,,399.54620833333337
74,2012-01-29,399.5869583333333,,399.5869583333333
74,2012-01-30,399.02737499999995,,399.02737499999995
74,2012-01-31,399.3834166666666,,399.3834166666666
74,2012-02-01,398.94599999999997,,398.94599999999997
74,2012-02-02,399.749625,,399.749625
74,2012-02-03,399.04770833333333,,399.04770833333333
74,2012-02-04,399.0375833333333,,399.0375833333333
74,2012-02-05,399.41404166666666,,399.41404166666666
74,2012-02-06,399.0375833333333,,399.0375833333333
74,2012-02-07,398.885,,398.885
74,2012-02-08,383.5448333333333,,383.5448333333333
74,2012-02-09,399.5461666666667,,399.5461666666667
74,2012-02-10,399.37325000000004,,399.37325000000004
74,2012-02-11,399.5360416666667,,399.5360416666667
74,2012-02-12,399.04770833333333,,399.04770833333333
74,2012-02-13,399.04775,,399.04775
74,2012-02-14,399.87170833333334,,399.87170833333334
74,2012-02-15,399.54620833333337,,399.54620833333337
74,2012-02-16,399.0782916666667,,399.0782916666667
74,2012-02-17,398.8748333333333,,398.8748333333333
74,2012-02-18,399.03754166666664,,399.03754166666664
74,2012-02-19,399.1596666666667,,399.1596666666667
74,2012-02-20,399.03754166666664,,399.03754166666664
74,2012-02-21,399.0070416666667,,399.0070416666667
74,2012-02-22,398.74262500000003,,398.74262500000003
74,2012-02-23,396.840375,,396.840375
74,2012-02-24,399.12920833333334,,399.12920833333334
74,2012-02-25,400.3294583333333,,400.3294583333333
74,2012-02-26,400.74666666666667,,400.74666666666667
74,2012-02-27,399.46487499999995,,399.46487499999995
74,2012-02-28,399.79058333333336,,399.79058333333336
74,2012-02-29,400.9602916666667,,400.9602916666667
74,2012-03-01,398.956375,,398.956375
74,2012-03-02,399.882,,399.882
74,2012-03-03,399.9532916666667,,399.9532916666667
74,2012-03-04,399.2207916666667,,399.2207916666667
74,2012-03-05,399.2920833333333,,399.2920833333333
74,2012-03-06,399.79045833333333,,399.79045833333333
74,2012-03-07,398.1323333333333,,398.1323333333333
74,2012-03-08,391.4082916666667,,391.4082916666667
74,2012-03-09,387.7869166666667,,387.7869166666667
74,2012-03-10,399.88208333333336,,399.88208333333336
74,2012-03-11,276.5807916666667,,276.5807916666667
74,2012-03-12,0.0,,0.0
74,2012-03-13,0.0,,0.0
74,2012-03-14,341.08479166666666,,341.08479166666666
74,2012-03-15,380.87983333333335,,380.87983333333335
74,2012-03-16,390.0452083333333,,390.0452083333333
74,2012-03-17,388.33620833333333,,388.33620833333333
74,2012-03-18,386.03720833333335,,386.03720833333335
74,2012-03-19,369.1305,,369.1305
74,2012-03-20,362.579375,,362.579375
74,2012-03-21,370.74783333333335,,370.74783333333335
74,2012-03-22,370.7987083333333,,370.7987083333333
74,2012-03-23,382.29370833333337,,382.29370833333337
74,2012-03-24,369.41533333333336,,369.41533333333336
74,2012-03-25,377.746625,,377.746625
74,2012-03-26,368.9167916666667,,368.9167916666667
74,2012-03-27,395.4670833333333,,395.4670833333333
74,2012-03-28,382.41574999999995,,382.41574999999995
74,2012-03-29,366.62804166666666,,366.62804166666666
74,2012-03-30,386.41350000000006,,386.41350000000006
74,2012-03-31,179.29075,,179.29075
74,2012-04-01,397.8779583333333,,397.8779583333333
74,2012-04-02,388.87533333333334,,388.87533333333334
74,2012-04-03,383.0464583333333,,383.0464583333333
74,2012-04-04,361.79608333333334,,361.79608333333334
74,2012-04-05,376.9937916666667,,376.9937916666667
74,2012-04-06,390.4927083333334,,390.4927083333334
74,2012-04-07,386.5050833333333,,386.5050833333333
74,2012-04-08,376.11899999999997,,376.11899999999997
74,2012-04-09,362.9659166666667,,362.9659166666667
74,2012-04-10,364.04429166666665,,364.04429166666665
74,2012-04-11,380.99174999999997,,380.99174999999997
74,2012-04-12,373.84041666666667,,373.84041666666667
74,2012-04-13,367.54358333333334,,367.54358333333334
74,2012-04-14,368.95758333333333,,368.95758333333333
74,2012-04-15,372.33483333333334,,372.33483333333334
74,2012-04-16,391.08275000000003,,391.08275000000003
74,2012-04-17,398.53920833333336,,398.53920833333336
74,2012-04-18,383.9212916666667,,383.9212916666667
74,2012-04-19,376.12929166666663,,376.12929166666663
74,2012-04-20,377.3599166666667,,377.3599166666667
74,2012-04-21,384.6334166666666,,384.6334166666666
74,2012-04-22,381.62224999999995,,381.62224999999995
74,2012-04-23,374.37945833333333,,374.37945833333333
74,2012-04-24,367.24858333333333,,367.24858333333333
74,2012-04-25,364.24762499999997,,364.24762499999997
74,2012-04-26,373.7997083333333,,373.7997083333333
74,2012-04-27,364.32895833333333,,364.32895833333333
74,2012-04-28,382.2936666666667,,382.2936666666667
74,2012-04-29,371.7957083333333,,371.7957083333333
74,2012-04-30,363.3320416666666,,363.3320416666666
74,2012-05-01,358.8257083333333,,358.8257083333333
74,2012-05-02,365.13258333333334,,365.13258333333334
74,2012-05-03,363.29145833333337,,363.29145833333337
74,2012-05-04,358.286625,,358.286625
74,2012-05-05,357.838875,,357.838875
74,2012-05-06,360.62625,,360.62625
74,2012-05-07,351.3285416666667,,351.3285416666667
74,2012-05-08,343.54654166666666,,343.54654166666666
74,2012-05-09,364.50195833333333,,364.50195833333333
74,2012-05-10,354.7872916666667,,354.7872916666667
74,2012-05-11,346.16091666666665,,346.16091666666665
74,2012-05-12,363.20995833333336,,363.20995833333336
74,2012-05-13,386.33212499999996,,386.33212499999996
74,2012-05-14,396.3827083333333,,396.3827083333333
74,2012-05-15,391.9169166666666,,391.9169166666666
74,2012-05-16,394.419375,,394.419375
74,2012-05-17,384.32820833333335,,384.32820833333335
74,2012-05-18,385.21320833333334,,385.21320833333334
74,2012-05-19,382.29370833333337,,382.29370833333337
74,2012-05-20,387.12575,,387.12575
74,2012-05-21,389.699375,,389.699375
74,2012-05-22,385.5489583333333,,385.5489583333333
74,2012-05-23,397.16587499999997,,397.16587499999997
74,2012-05-24,397.83725,,397.83725
74,2012-05-25,396.58608333333336,,396.58608333333336
74,2012-05-26,399.24108333333334,,399.24108333333334
74,2012-05-27,399.1190833333333,,399.1190833333333
74,2012-05-28,400.2582916666667,,400.2582916666667
74,2012-05-29,399.739625,,399.739625
74,2012-05-30,382.62925,,382.62925
74,2012-05-31,381.74445833333334,,381.74445833333334
74,2012-06-01,381.20525,,381.20525
74,2012-06-02,382.3344583333333,,382.3344583333333
74,2012-06-03,378.20433333333335,,378.20433333333335
74,2012-06-04,365.9158333333333,,365.9158333333333
74,2012-06-05,357.249,,357.249
74,2012-06-06,376.0885416666667,,376.0885416666667
74,2012-06-07,386.199875,,386.199875
74,2012-06-08,393.0359583333333,,393.0359583333333
74,2012-06-09,397.63395833333334,,397.63395833333334
74,2012-06-10,398.997,,398.997
74,2012-06-11,399.037625,,399.037625
74,2012-06-12,397.46095833333334,,397.46095833333334
74,2012-06-13,399.83104166666664,,399.83104166666664
74,2012-06-14,396.58620833333333,,396.58620833333333
74,2012-06-15,396.41320833333333,,396.41320833333333
74,2012-06-16,394.6634583333334,,394.6634583333334
74,2012-06-17,396.34195833333337,,396.34195833333337
74,2012-06-18,386.8714166666667,,386.8714166666667
74,2012-06-19,394.82633333333337,,394.82633333333337
74,2012-06-20,399.4241666666667,,399.4241666666667
74,2012-06-21,398.7527916666666,,398.7527916666666
74,2012-06-22,399.2919583333333,,399.2919583333333
74,2012-06-23,399.29187499999995,,399.29187499999995
74,2012-06-24,398.2136666666667,,398.2136666666667
74,2012-06-25,399.49541666666664,,399.49541666666664
74,2012-06-26,394.704125,,394.704125
74,2012-06-27,395.9960833333334,,395.9960833333334
74,2012-06-28,398.2035,,398.2035
74,2012-06-29,385.376,,385.376
74,2012-06-30,399.6276666666667,,399.6276666666667
74,2012-07-01,399.07841666666667,,399.07841666666667
74,2012-07-02,398.9664583333333,,398.9664583333333
74,2012-07-03,399.169875,,399.169875
74,2012-07-04,399.2919583333333,,399.2919583333333
74,2012-07-05,398.91545833333333,,398.91545833333333
74,2012-07-06,399.67854166666666,,399.67854166666666
74,2012-07-07,399.5767916666667,,399.5767916666667
74,2012-07-08,399.8412083333333,,399.8412083333333
74,2012-07-09,399.45475000000005,,399.45475000000005
74,2012-07-10,398.702,,398.702
74,2012-07-11,399.12920833333334,,399.12920833333334
74,2012-07-12,400.00399999999996,,400.00399999999996
74,2012-07-13,398.95625,,398.95625
74,2012-07-14,399.22075,,399.22075
74,2012-07-15,398.79358333333334,,398.79358333333334
74,2012-07-16,399.2919166666666,,399.2919166666666
74,2012-07-17,399.871875,,399.871875
74,2012-07-18,399.882,,399.882
74,2012-07-19,399.5462916666667,,399.5462916666667
74,2012-07-20,398.53920833333336,,398.53920833333336
74,2012-07-21,400.00404166666664,,400.00404166666664
74,2012-07-22,399.5462916666667,,399.5462916666667
74,2012-07-23,399.454625,,399.454625
74,2012-07-24,399.92270833333333,,399.92270833333333
74,2012-07-25,398.4069583333333,,398.4069583333333
74,2012-07-26,400.0040833333333,,400.0040833333333
74,2012-07-27,399.2105833333333,,399.2105833333333
74,2012-07-28,399.3734166666666,,399.3734166666666
74,2012-07-29,400.2277916666667,,400.2277916666667
74,2012-07-30,398.6204583333333,,398.6204583333333
74,2012-07-31,399.2513333333333,,399.2513333333333
74,2012-08-01,399.0885,,399.0885
74,2012-08-02,399.55649999999997,,399.55649999999997
74,2012-08-03,399.9227083333329,,399.9227083333329
74,2012-08-04,399.29204166666665,,399.29204166666665
74,2012-08-05,400.0040833333333,,400.0040833333333
74,2012-08-06,398.07120833333335,,398.07120833333335
74,2012-08-07,399.8209583333333,,399.8209583333333
74,2012-08-08,398.51891666666666,,398.51891666666666
74,2012-08-09,398.763,,398.763
74,2012-08-10,399.76,,399.76
74,2012-08-11,399.04775,,399.04775
74,2012-08-12,400.28879166666667,,400.28879166666667
74,2012-08-13,399.8820416666667,,399.8820416666667
74,2012-08-14,400.63475,,400.63475
74,2012-08-15,399.65825,,399.65825
74,2012-08-16,398.84441666666663,,398.84441666666663
74,2012-08-17,399.9632916666667,,399.9632916666667
74,2012-08-18,399.71925000000005,,399.71925000000005
74,2012-08-19,399.6175416666667,,399.6175416666667
74,2012-08-20,399.12925,,399.12925
74,2012-08-21,399.6378333333334,,399.6378333333334
74,2012-08-22,400.777125,,400.777125
74,2012-08-23,398.6612916666666,,398.6612916666666
74,2012-08-24,399.4955,,399.4955
74,2012-08-25,399.39379166666663,,399.39379166666663
74,2012-08-26,399.1901666666667,,399.1901666666667
74,2012-08-27,399.29204166666665,,399.29204166666665
74,2012-08-28,399.1903333333333,,399.1903333333333
74,2012-08-29,399.8005416666667,,399.8005416666667
74,2012-08-30,399.71920833333337,,399.71920833333337
74,2012-08-31,398.702,,398.702
74,2012-09-01,399.8412916666667,,399.8412916666667
74,2012-09-02,399.1496666666667,,399.1496666666667
74,2012-09-03,398.3968333333333,,398.3968333333333